Starlink 31497

operational
NORAD ID: 60592 Int'l Des: 2024-150 Owner: SPXS Country: US Constellation: starlink
LEOCIRCULAR

Über Starlink 31497

Beschreibung wird geladen...

Live-Position

3D-Globus wird geladen...

Nächste Überflüge

Höhenverlauf

Altitude vs Time

uPlot chart will show altitude changes over time

Zweizeiliger Elementsatz

1 60592U 24150K 25259.64543481 -.00001323 00000-0 -32570-4 0 9994
2 60592 53.1617 35.4992 0001067 88.7208 271.3915 15.30181058 61395
Epoch: 16. Sept. 2025 • Age: 35 hours

Aktueller Status

Höhe 478.2 km
Geschwindigkeit 7.63 km/s
Subsatellitenpunkt 39.50°N, 36.33°E
Startdatum 20. Aug. 2024
Alter 1 years
Typ internet

Technische Details

Klassifizierung Payload
Masse 730.00 kg
Trockenmasse 700.00 kg
Gesamtmasse 730.00 kg
Länge 0.30 m
Durchmesser 4.10 m
Spannweite 29.00 m
Form Box + pan
Hersteller SPXS
Bus-Typ Starlink V2M
Phasenstatus In Orbit
Besitzer/Staat SPXS/US

Große Konstellationen

Loading constellations...